Location: Cuiry
(49.3858°N, 3.7708°E)
Time: 14:02:44
(UTC+00:00)

Cosmos 2297 - Pass Details

Date: 12 January 2026
Orbit: 835 x 857 km, 71.0° (Epoch: 16 February)

Event Time Altitude Azimuth Distance (km) Brightness Sun altitude
Rises 17:26:29 0° 329° (NNW) 3,399 7.0 -12.0°
Reaches altitude 10° 17:28:58 10° 325° (NW) 2,463 6.3 -12.4°
Maximum altitude 17:34:30 59° 248° (WSW) 969 4.4 -13.2°
Drops below altitude 10° 17:40:02 10° 170° (S) 2,460 6.2 -14.1°
Sets 17:42:30 0° 166° (SSE) 3,394 6.9 -14.5°
